Previsão horária em Cementnyy

Hoje, 25 Julho, Domingo

Tempo Temperatura Precipitação Vento Pressão Humidade
00:00 +14°C° 0.1 mm 1 m/s 734 mmHg 91%
01:00 +14°C° 0.1 mm 1 m/s 734 mmHg 93%
02:00 +14°C° 0.3 mm 2 m/s 734 mmHg 94%
03:00 +13°C° 0.3 mm 2 m/s 735 mmHg 95%
04:00 +12°C° 0 mm 2 m/s 735 mmHg 95%
05:00 +11°C° 0 mm 3 m/s 736 mmHg 91%
06:00 +11°C° 0 mm 3 m/s 736 mmHg 87%
07:00 +12°C° 0 mm 3 m/s 737 mmHg 84%
08:00 +13°C° 0 mm 3 m/s 737 mmHg 71%
09:00 +16°C° 0 mm 3 m/s 737 mmHg 58%
10:00 +17°C° 0 mm 4 m/s 738 mmHg 44%
11:00 +18°C° 0 mm 4 m/s 738 mmHg 40%
12:00 +19°C° 0 mm 4 m/s 738 mmHg 37%
13:00 +20°C° 0 mm 4 m/s 738 mmHg 33%
14:00 +20°C° 0 mm 4 m/s 739 mmHg 33%
15:00 +20°C° 0 mm 4 m/s 739 mmHg 33%
16:00 +20°C° 0 mm 4 m/s 739 mmHg 32%
17:00 +19°C° 0 mm 4 m/s 739 mmHg 38%
18:00 +18°C° 0 mm 4 m/s 740 mmHg 44%
19:00 +17°C° 0 mm 3 m/s 740 mmHg 49%
20:00 +14°C° 0 mm 3 m/s 740 mmHg 53%
21:00 +14°C° 0 mm 2 m/s 741 mmHg 57%
22:00 +13°C° 0 mm 1 m/s 741 mmHg 61%
23:00 +12°C° 0 mm 1 m/s 741 mmHg 64%

Amanhã, 26 Julho, Segunda-feira

Tempo Temperatura Precipitação Vento Pressão Humidade
00:00 +11°C° 0 mm 1 m/s 741 mmHg 66%
01:00 +11°C° 0 mm 1 m/s 741 mmHg 69%
02:00 +11°C° 0 mm 1 m/s 742 mmHg 68%
03:00 +12°C° 0 mm 1 m/s 742 mmHg 67%
04:00 +12°C° 0 mm 1 m/s 742 mmHg 66%
05:00 +12°C° 0 mm 2 m/s 742 mmHg 64%
06:00 +13°C° 0 mm 2 m/s 742 mmHg 62%
07:00 +13°C° 0 mm 2 m/s 742 mmHg 60%
08:00 +14°C° 0 mm 3 m/s 742 mmHg 53%
09:00 +15°C° 0 mm 4 m/s 741 mmHg 47%
10:00 +18°C° 0 mm 4 m/s 741 mmHg 40%
11:00 +18°C° 0 mm 4 m/s 741 mmHg 41%
12:00 +18°C° 0 mm 4 m/s 741 mmHg 43%
13:00 +18°C° 0 mm 4 m/s 741 mmHg 44%
14:00 +18°C° 0 mm 4 m/s 741 mmHg 45%
15:00 +18°C° 0 mm 4 m/s 741 mmHg 46%
16:00 +18°C° 0 mm 4 m/s 740 mmHg 48%
17:00 +17°C° 0 mm 3 m/s 740 mmHg 51%
18:00 +17°C° 0 mm 3 m/s 740 mmHg 54%
19:00 +16°C° 0 mm 3 m/s 740 mmHg 57%
20:00 +14°C° 0 mm 3 m/s 740 mmHg 64%
21:00 +13°C° 0 mm 2 m/s 740 mmHg 72%
22:00 +12°C° 0 mm 2 m/s 740 mmHg 79%
23:00 +10°C° 0 mm 2 m/s 739 mmHg 82%

Depois de amanhã, 27 Julho, Terça-feira

Tempo Temperatura Precipitação Vento Pressão Humidade
00:00 +10°C° 0 mm 2 m/s 739 mmHg 84%
01:00 +10°C° 0 mm 2 m/s 739 mmHg 86%
02:00 +10°C° 0 mm 3 m/s 738 mmHg 82%
03:00 +11°C° 0 mm 3 m/s 738 mmHg 77%
04:00 +12°C° 0 mm 4 m/s 737 mmHg 73%
05:00 +12°C° 0 mm 4 m/s 737 mmHg 75%
06:00 +12°C° 0 mm 4 m/s 737 mmHg 78%
07:00 +12°C° 0 mm 4 m/s 737 mmHg 80%
08:00 +14°C° 0 mm 4 m/s 737 mmHg 76%
09:00 +15°C° 0 mm 5 m/s 737 mmHg 72%
10:00 +16°C° 0 mm 5 m/s 737 mmHg 68%
11:00 +16°C° 0.1 mm 5 m/s 737 mmHg 66%
12:00 +17°C° 0.1 mm 4 m/s 737 mmHg 65%
13:00 +17°C° 0.1 mm 4 m/s 736 mmHg 63%
14:00 +17°C° 0 mm 4 m/s 736 mmHg 63%
15:00 +17°C° 0 mm 4 m/s 736 mmHg 63%
16:00 +18°C° 0 mm 3 m/s 736 mmHg 63%
17:00 +17°C° 0.1 mm 3 m/s 735 mmHg 66%
18:00 +16°C° 0.1 mm 3 m/s 735 mmHg 68%
19:00 +14°C° 0.1 mm 3 m/s 735 mmHg 71%
20:00 +13°C° 0 mm 3 m/s 735 mmHg 73%
21:00 +12°C° 0 mm 3 m/s 736 mmHg 75%
22:00 +11°C° 0 mm 3 m/s 736 mmHg 78%
23:00 +10°C° 0 mm 2 m/s 736 mmHg 81%

28 Julho, Quarta-feira

Tempo Temperatura Precipitação Vento Pressão Humidade
00:00 +9°C° 0 mm 2 m/s 736 mmHg 84%
01:00 +8°C° 0 mm 2 m/s 736 mmHg 88%
02:00 +7°C° 0 mm 2 m/s 736 mmHg 90%
03:00 +6°C° 0 mm 2 m/s 736 mmHg 92%
04:00 +5°C° 0 mm 2 m/s 736 mmHg 94%
05:00 +7°C° 0 mm 3 m/s 736 mmHg 84%
06:00 +9°C° 0 mm 3 m/s 736 mmHg 73%
07:00 +11°C° 0 mm 4 m/s 736 mmHg 63%
08:00 +12°C° 0 mm 4 m/s 736 mmHg 59%
09:00 +13°C° 0 mm 4 m/s 736 mmHg 55%
10:00 +14°C° 0 mm 5 m/s 736 mmHg 52%
11:00 +15°C° 0.1 mm 5 m/s 736 mmHg 50%
12:00 +15°C° 0.1 mm 5 m/s 735 mmHg 49%
13:00 +16°C° 0.1 mm 6 m/s 735 mmHg 47%
14:00 +16°C° 0 mm 5 m/s 735 mmHg 47%
15:00 +16°C° 0 mm 5 m/s 735 mmHg 48%
16:00 +15°C° 0 mm 5 m/s 736 mmHg 48%
17:00 +15°C° 0 mm 4 m/s 736 mmHg 51%
18:00 +14°C° 0 mm 3 m/s 736 mmHg 54%
19:00 +15°C° 0 mm 2 m/s 736 mmHg 57%
20:00 +14°C° 0 mm 2 m/s 735 mmHg 61%
21:00 +13°C° 0 mm 2 m/s 735 mmHg 65%
22:00 +12°C° 0 mm 2 m/s 735 mmHg 69%
23:00 +13°C° 0 mm 2 m/s 734 mmHg 67%

29 Julho, Quinta-feira

Tempo Temperatura Precipitação Vento Pressão Humidade
00:00 +12°C° 0 mm 3 m/s 733 mmHg 65%
01:00 +13°C° 0 mm 4 m/s 733 mmHg 64%
02:00 +12°C° 0.7 mm 4 m/s 732 mmHg 74%
03:00 +12°C° 0.7 mm 3 m/s 732 mmHg 84%
04:00 +11°C° 0.7 mm 3 m/s 732 mmHg 94%
05:00 +11°C° 1.3 mm 3 m/s 732 mmHg 94%
06:00 +11°C° 1.3 mm 3 m/s 732 mmHg 94%
07:00 +11°C° 1.3 mm 4 m/s 731 mmHg 95%
08:00 +12°C° 0.1 mm 4 m/s 731 mmHg 92%
09:00 +13°C° 0.1 mm 4 m/s 732 mmHg 90%
10:00 +14°C° 0.1 mm 4 m/s 732 mmHg 88%
11:00 +15°C° 0.4 mm 4 m/s 732 mmHg 84%
12:00 +17°C° 0.4 mm 4 m/s 732 mmHg 81%
13:00 +16°C° 0.4 mm 5 m/s 732 mmHg 78%
14:00 +17°C° 0.2 mm 5 m/s 732 mmHg 73%
15:00 +18°C° 0.2 mm 4 m/s 732 mmHg 68%
16:00 +19°C° 0.2 mm 4 m/s 732 mmHg 64%
17:00 +18°C° 0 mm 3 m/s 732 mmHg 65%
18:00 +17°C° 0 mm 3 m/s 733 mmHg 67%
19:00 +16°C° 0 mm 2 m/s 733 mmHg 69%
20:00 +14°C° 0 mm 2 m/s 733 mmHg 75%
21:00 +13°C° 0 mm 1 m/s 734 mmHg 82%
22:00 +11°C° 0 mm 1 m/s 734 mmHg 88%
23:00 +10°C° 0 mm 1 m/s 734 mmHg 87%

30 Julho, Sexta-feira

Tempo Temperatura Precipitação Vento Pressão Humidade
00:00 +9°C° 0 mm 0 m/s 734 mmHg 86%
01:00 +9°C° 0 mm 0 m/s 734 mmHg 85%
02:00 +9°C° 0 mm 0 m/s 734 mmHg 83%
03:00 +10°C° 0 mm 0 m/s 734 mmHg 80%
04:00 +10°C° 0 mm 0 m/s 735 mmHg 78%
05:00 +11°C° 0 mm 0 m/s 735 mmHg 75%
06:00 +12°C° 0 mm 0 m/s 735 mmHg 71%
07:00 +13°C° 0 mm 1 m/s 736 mmHg 68%
08:00 +15°C° 0 mm 1 m/s 736 mmHg 63%
09:00 +16°C° 0 mm 1 m/s 736 mmHg 57%
10:00 +17°C° 0 mm 0 m/s 736 mmHg 52%
11:00 +20°C° 0 mm 1 m/s 736 mmHg 48%
12:00 +21°C° 0 mm 1 m/s 736 mmHg 44%
13:00 +21°C° 0 mm 2 m/s 736 mmHg 39%
14:00 +23°C° 0 mm 2 m/s 736 mmHg 38%
15:00 +23°C° 0 mm 2 m/s 736 mmHg 37%
16:00 +23°C° 0 mm 2 m/s 736 mmHg 36%
17:00 +22°C° 0 mm 1 m/s 736 mmHg 45%
18:00 +20°C° 0 mm 1 m/s 736 mmHg 53%
19:00 +17°C° 0 mm 0 m/s 736 mmHg 61%
20:00 +18°C° 0 mm 1 m/s 736 mmHg 64%
21:00 +15°C° 0 mm 1 m/s 736 mmHg 68%
22:00 +14°C° 0 mm 1 m/s 736 mmHg 71%
23:00 +14°C° 0 mm 2 m/s 736 mmHg 77%
Mostrar mais

Necessitamos do seu Consentimento

A Meteoprog e os seus Fornecedores de Serviços podem armazenar e aceder a dados pessoais como cookies, identificadores do dispositivo ou outras tecnologias semelhantes existentes no seu dispositivo e processar estes dados para personalizar conteúdos e anúncios, assim como funcionalidades nas redes sociais e análise de tráfego.

  • Armazenar e/ou aceder a informações no seu dispositivo

    Os cookies, identificadores do dispositivo ou outras informações podem ser armazenados ou acedidos no seu dispositivo, para os fins acima indicados.

  • Anúncios e conteúdos personalizados, medição de anúncios e conteúdos, dados sobre o público-alvo e desenvolvimento de produtos

    Os anúncios e os conteúdos podem ser personalizados com base num perfil. Podem ser adicionados dados adicionais para uma maior personalização dos anúncios e dos conteúdos. A eficácia dos anúncios e dos conteúdos pode ser medida. Podem ser obtidas informações sobre o público que visualizou os anúncios e os conteúdos. Estes dados podem ser usados para desenvolver ou melhorar sistemas, softwares ou a experiência do utilizador.

Ao clicar em "Eu concordo”, permitirá o uso de cookies, identificadores do dispositivo e web beacons mencionados ou outras tecnologias semelhantes. As configurações do navegador do seu dispositivo podem ser alteradas.

Para certos fins, podem ser invocados interesses legítimos ao invés de consentimento. Pode ler mais informação sobre este assunto na nossa Política de Privacidade e Cookies.